Showing default

GALILEO 17 (26D), 41861

Orbit data source: Space-Track

GALILEO 17 (26D), 41861 is a payload satellite owned by GNSS Agency (ESA) that was launched on Thu, 17 Nov 2016 UTC via an ARIANE 5ES launch vehicle from the French Guiana (FRGUI). Payload-class satellites include a variety of spacecraft equipped with specific instruments for various scientific and technological missions. These include communications satellites like Starlink; space stations such as the ISS; scientific satellites like the Hubble; Earth observation satellites from companies like Planet Labs, Umbra, and HawkEye 360; GPS; miniature CubeSats for education and research; and military/defense satellites.

Loading next visibility...
Identifier
41861, 2016-069C
Orbit
Active
Country
Flag of ESAESA
Related business
Manufacturer
OHB
Mission
Operational Civil Navigation
Bus & Motor
GALILEOSAT, AOCS
Mass
738 kg wet, 700 kg dry
Launch date (UTC)
2016-11-17 (9 years ago)
Launch vehicle
ARIANE 5ES
Launch site
French Guiana (FRGUI)
Object type
Payload
Rocket body
Debris
Shape & HBR
Box + 2 Pan, 7.3 m
Radar Cross Section
9.223 m², Large (>1 m²)

Expand to show TLE details & history
Last TLE update: 21 hours ago

TLE from 21 hours ago
0 GALILEO 17 (26D)
1 41861U 16069C   26105.20175390  .00000074  00000-0  00000+0 0  9993
2 41861  55.4575 102.8301 0005877 300.3264  59.6413  1.70474644 58449
Epoch: 2026-04-15T04:50Z
TLE epoch observation values (Epoch: 2026-04-15T04:50:31.536Z)
Latitude
-0.00002°
Longitude
-173.18234°
Altitude
23,213.589 km
Speed
3.671 km/s
True Right ascension
06h 51m 15s
True Declination
0° 00' 00"
Sunlit
Object was in daylight at epoch
Visualization orbit readout
Latitude
Unknown
Longitude
Unknown
Altitude
Unknown
Speed
Unknown
Apparent Right ascension
Unknown
Apparent Declination
Unknown
Sunlit
N/A
Visualization observer readout
Local Sidereal Time
08:40:45
Azimuth
Unknown
Elevation
Unknown
Doppler factor
Unknown
Orbital elements
Apogee altitude
23,239.496 km
Perigee altitude
23,204.704 km
Semi-major axis
29,600.237 km
Eccentricity
0.00059
Inclination
55.4575°
RAAN
102.8301°
Arg. of periapsis
300.3264°
True anomaly
59.69943°
Mean anomaly
59.6413°
Eccentric anomaly
59.67036°
Mean motion
0.42619 °/min
Orbital period
844.7 mins
BSTAR
0
Loading maneuver chart data...
Computing Atmospheric mass density...
Loading historical data...
Loading historical data...
Loading historical data...
Loading historical data...
Loading historical data...
Loading historical data...
Loading historical data...
Other satellites on launch #69 in the year 2016 (2016-11-17 UTC)

Documentation

Showing up to 5 results
|